Cloud_Cover
5 6 5 10 67 100 100 100 48 74 100 100 100 100 100 100 100 100 100 100 11 48 18 4 2 0 0 0 0 1 0 0 0 0 0 0 0 0 2 5 18 27 5 21 4 4 4 4 0 0 0 0 0 0
5 5 5 6 12 20 100 100 100 100 98 52 100 100 100 100 100 99 22 6 40 100 91 5 27 5 1 3 21 8 4 0 0 0 0 0 0 0 0 0 0 3 5 76 87 97 71 99 82 6 5 8 45 27
6 5 5 10 5 32 38 99 100 100 100 100 98 100 100 100 100 100 94 55 10 5 67 5 62 36 5 6 40 39 5 1 0 0 0 0 0 0 0 0 0 0 4 9 5 40 92 94 31 5 6 82 100 100
36 29 5 5 6 35 88 96 91 100 100 100 100 99 100 100 100 100 98 40 56 49 37 5 5 5 20 64 54 37 27 26 12 41 2 0 0 0 0 0 0 0 4 0 5 5 3 0 1 24 67 100 86 54
25 100 99 100 74 16 87 100 100 100 96 99 86 100 100 100 100 100 100 100 62 33 61 42 69 3 2 63 97 90 52 100 100 100 98 49 0 0 0 0 0 0 1 5 5 5 5 5 5 97 100 100 100 100
100 89 91 53 88 95 100 100 100 100 100 100 97 100 100 100 100 93 100 100 98 89 100 100 63 28 15 4 30 100 91 2 87 100 100 100 56 0 0 0 2 4 5 36 79 98 21 5 5 78 100 100 32 91
18 84 100 100 100 100 100 100 100 100 100 99 95 100 100 100 96 96 98 93 97 100 88 96 73 41 5 5 71 84 95 91 6 84 100 100 23 5 16 1 5 5 8 5 5 5 9 21 5 21 18 33 58 97
99 82 100 100 100 100 100 100 100 100 100 100 100 100 100 98 93 7 40 45 35 29 11 5 6 1 5 5 13 97 100 100 91 4 5 37 92 82 92 100 67 10 5 5 5 6 15 9 32 32 13 48 5 5
100 100 100 100 100 100 100 100 100 100 100 100 73 62 36 82 23 5 3 2 59 100 61 25 55 5 3 0 20 76 70 100 100 95 1 6 58 100 100 100 100 96 82 8 1 8 9 22 100 100 100 66 6 66
100 100 100 100 100 100 100 100 100 100 100 100 100 84 30 37 10 5 5 0 0 17 87 28 100 57 5 0 3 5 7 54 100 100 99 6 19 100 100 100 100 100 70 5 27 92 100 100 100 100 49 89 67 5
100 100 100 100 100 100 100 100 100 100 100 100 100 100 95 77 45 23 16 47 6 3 12 84 71 86 95 6 5 18 82 78 64 60 98 100 64 88 100 100 100 38 8 85 100 100 100 100 97 98 100 99 16 5
100 100 100 100 100 100 100 100 100 100 100 100 100 100 100 100 100 100 97 100 72 5 23 11 13 55 90 34 5 20 94 93 84 56 41 98 100 87 78 100 60 85 100 100 58 20 17 88 100 100 100 100 65 20
100 100 100 100 100 100 100 100 100 100 100 100 100 100 100 99 99 100 100 74 30 98 90 100 95 96 16 5 40 8 9 16 18 8 99 100 100 100 100 92 29 79 76 90 98 98 100 100 100 100 100 100 90 91
100 100 100 100 100 100 100 100 100 100 100 100 100 99 100 100 100 100 100 59 57 92 100 98 99 50 89 74 73 93 10 44 5 71 68 12 39 98 100 100 100 100 100 100 100 100 100 100 100 100 100 98 69 7
100 100 100 100 100 100 100 100 100 100 100 100 100 84 78 100 100 100 100 100 63 83 78 100 38 61 97 23 100 99 95 11 36 91 96 74 100 100 100 98 100 100 100 100 100 100 100 100 100 100 70 11 5 1
100 100 100 100 100 100 100 100 100 100 100 100 100 49 100 100 100 100 100 77 98 88 18 100 97 41 49 64 84 49 8 42 91 100 100 100 100 100 100 100 100 100 100 100 100 100 79 72 38 6 5 0 1 0
100 100 100 100 100 100 100 100 100 100 100 100 76 66 100 100 100 88 100 99 100 40 100 29 100 92 14 87 99 93 100 100 100 100 100 100 100 100 100 100 100 100 100 100 100 43 52 25 34 4 0 0 1 2
100 100 100 100 100 100 100 76 94 99 99 80 67 92 100 100 100 100 100 98 54 100 91 96 97 100 60 24 72 86 90 100 100 100 100 100 100 100 100 100 100 100 100 99 88 58 16 5 5 24 23 6 7 46
100 100 100 100 100 100 100 91 100 100 98 61 52 86 100 100 100 100 65 34 29 84 54 48 100 82 54 23 64 99 100 100 100 100 100 100 100 100 100 100 100 100 100 89 10 5 5 2 19 100 52 46 28 20
100 100 100 100 100 100 100 100 100 100 100 100 74 94 42 29 46 64 75 99 95 100 90 92 100 36 30 19 98 99 100 100 100 100 100 100 100 100 100 100 100 100 91 16 5 4 0 24 81 18 49 94 59 96
100 100 100 100 100 100 92 100 100 100 100 100 100 95 9 15 32 62 94 100 100 43 24 10 80 100 99 100 100 94 100 100 100 99 92 100 100 100 100 100 100 23 5 4 0 0 0 5 10 81 68 52 76 100
100 100 100 100 100 100 98 100 100 100 100 100 100 100 74 33 18 20 21 36 10 6 6 55 38 48 72 96 80 99 100 100 100 98 99 100 100 100 100 90 10 5 5 3 2 3 5 5 47 94 99 100 100 100
100 100 100 100 100 100 100 100 100 100 100 100 100 86 28 86 98 100 49 5 13 46 13 13 5 5 22 78 100 99 98 100 100 100 100 100 100 100 83 75 5 5 5 5 3 0 3 3 0 26 100 100 100 100
100 100 100 100 100 100 100 100 100 100 100 100 100 100 74 32 51 79 100 84 100 85 5 39 33 60 58 46 98 100 100 100 100 100 100 100 100 98 100 15 5 13 84 6 4 0 0 27 5 3 95 100 100 100
100 100 100 100 100 100 100 100 100 100 100 100 100 100 99 68 100 100 100 100 100 100 100 100 92 96 100 93 99 100 100 100 100 100 96 100 100 94 5 5 5 42 57 5 5 5 4 0 2 2 1 2 5 89
100 100 100 100 100 100 100 100 100 100 100 99 90 86 100 100 100 100 100 100 100 100 100 100 100 100 98 100 98 100 91 82 84 100 100 99 46 88 5 5 5 5 2 4 5 6 42 19 12 3 5 5 5 5
100 100 100 71 100 100 100 100 100 100 100 86 100 100 100 100 100 100 100 100 100 100 100 100 100 100 100 92 99 83 97 100 100 100 92 60 81 37 46 41 78 50 6 4 3 0 5 5 9 9 5 5 5 18
96 100 96 81 100 100 100 100 100 100 100 100 100 100 100 100 100 100 100 100 100 100 100 100 100 98 100 98 64 84 100 100 100 96 47 99 47 5 5 5 17 85 94 6 53 13 3 18 30 96 26 91 8 5
99 99 100 55 90 100 96 100 98 90 84 100 100 100 100 100 99 99 100 100 100 100 100 100 100 100 100 100 100 100 100 100 100 95 99 48 5 5 70 5 15 9 5 4 12 87 20 8 42 26 40 14 14 2
85 88 46 45 51 54 58 98 100 100 100 100 100 100 100 100 100 100 100 100 100 100 100 98 100 100 100 100 100 100 100 100 100 100 81 28 5 3 5 5 5 45 45 28 77 65 53 70 23 16 77 74 7 1
82 100 100 100 92 75 94 92 90 99 100 100 100 100 100 100 100 100 100 90 100 100 94 88 99 100 99 90 100 100 94 83 62 85 61 6 1 4 1 4 5 48 10 5 5 5 8 35 6 5 24 16 6 5
100 98 85 95 100 100 100 100 84 68 82 81 99 100 100 100 100 98 30 69 51 46 68 100 100 100 95 80 87 100 57 94 100 8 5 5 5 5 5 40 12 5 5 5 5 6 5 5 5 5 21 86 84 5
100 100 100 100 100 100 100 78 71 84 17 26 32 87 100 100 100 100 99 95 100 100 100 87 93 100 100 100 100 78 30 12 31 52 18 31 31 53 54 91 51 53 5 5 5 5 5 5 12 36 5 5 90 53